FW6366 Weather Reports


Display with metric or nautical units.
time (UTC)temp
F
wind
direction
speed
MPH
gust
MPH
rain 1hr
in
rain 24hr
in
rain mn
in
humidity
%
barometer
mb
20260505001601 58 303 2.0 4.0 0.00 0.00 0.00 63 1006.6
20260505001101 58 302 2.0 4.0 0.00 0.00 0.00 63 1006.5
20260505000558 59 300 2.0 4.0 0.00 0.00 0.00 62 1006.6
20260505000104 59 300 1.0 4.0 0.00 0.00 0.00 62 1006.4
20260504235559 59 303 2.0 4.0 0.00 0.00 0.00 61 1006.3
20260504235108 60 307 2.0 4.0 0.00 0.00 0.00 61 1006.2
20260504234629 60 296 2.0 4.0 0.00 0.00 0.00 59 1006.2
20260504234101 60 298 1.0 5.0 0.00 0.00 0.00 60 1006.1
20260504233601 61 300 2.0 5.0 0.00 0.00 0.00 58 1006.2
20260504233101 62 303 1.0 4.0 0.00 0.00 0.00 56 1006.1
20260504232559 62 125 1.0 4.0 0.00 0.00 0.00 56 1005.9
20260504232059 62 306 1.0 5.0 0.00 0.00 0.00 55 1005.9
20260504231606 63 0 1.0 8.0 0.00 0.00 0.00 51 1005.8
20260504231059 64 0 3.0 8.0 0.00 0.00 0.00 49 1005.8
20260504230602 63 275 0.0 4.0 0.00 0.00 0.00 52 1005.7
20260504225559 64 0 2.0 7.0 0.00 0.00 0.00 53 1005.7
20260504225101 64 181 2.0 9.0 0.00 0.00 0.00 48 1005.5
20260504224608 63 0 3.0 9.0 0.00 0.00 0.00 53 1005.5
20260504224059 62 261 0.0 5.0 0.00 0.00 0.00 55 1005.6
20260504223559 63 203 0.0 3.0 0.00 0.00 0.00 53 1005.4
20260504223101 63 287 0.0 3.0 0.00 0.00 0.00 55 1005.4
20260504222559 64 0 1.0 3.0 0.00 0.00 0.00 53 1005.5
20260504222102 65 0 1.0 8.0 0.00 0.00 0.00 51 1005.3
20260504221606 67 0 2.0 8.0 0.00 0.00 0.00 42 1005.4
20260504221100 67 172 3.0 8.0 0.00 0.00 0.00 43 1005.4
20260504220559 66 181 2.0 7.0 0.00 0.00 0.00 43 1005.5
20260504220059 66 129 1.0 8.0 0.00 0.00 0.00 45 1005.4
20260504215559 67 166 1.0 8.0 0.00 0.00 0.00 48 1005.5
20260504215059 67 199 3.0 11.0 0.00 0.00 0.00 42 1005.5
20260504214604 67 201 3.0 11.0 0.00 0.00 0.00 42 1005.5
20260504214059 67 158 4.0 12.0 0.00 0.00 0.00 44 1005.5
20260504213559 68 188 5.0 15.0 0.00 0.00 0.00 41 1005.4
20260504213105 68 141 4.0 15.0 0.00 0.00 0.00 42 1005.3
20260504212558 68 0 7.0 15.0 0.00 0.00 0.00 41 1005.4
20260504212059 68 179 4.0 10.0 0.00 0.00 0.00 44 1005.3
20260504211557 68 23 2.0 6.0 0.00 0.00 0.00 41 1005.3
20260504211056 68 184 3.0 6.0 0.00 0.00 0.00 40 1005.4
20260504210558 68 206 2.0 13.0 0.00 0.00 0.00 41 1005.5
20260504210105 68 341 2.0 13.0 0.00 0.00 0.00 43 1005.5
20260504205602 68 146 6.0 13.0 0.00 0.00 0.00 42 1005.5
20260504205103 68 191 5.0 11.0 0.00 0.00 0.00 43 1005.6
20260504204637 68 166 4.0 17.0 0.00 0.00 0.00 44 1005.6
20260504204059 68 178 4.0 17.0 0.00 0.00 0.00 44 1005.6
20260504203559 68 248 4.0 13.0 0.00 0.00 0.00 43 1005.6
20260504203057 68 159 2.0 13.0 0.00 0.00 0.00 41 1005.6
20260504202559 68 203 6.0 13.0 0.00 0.00 0.00 42 1005.7
20260504202100 68 182 4.0 9.0 0.00 0.00 0.00 41 1005.8
20260504201559 69 105 2.0 13.0 0.00 0.00 0.00 42 1005.8
20260504201059 68 191 2.0 13.0 0.00 0.00 0.00 40 1005.9
20260504200559 68 155 2.0 12.0 0.00 0.00 0.00 43 1005.8
20260504195559 67 215 5.0 20.0 0.00 0.00 0.00 43 1005.9
20260504195103 67 169 10.0 20.0 0.00 0.00 0.00 44 1005.9
20260504194600 68 175 6.0 19.0 0.00 0.00 0.00 43 1005.9
20260504194101 68 174 3.0 20.0 0.00 0.00 0.00 45 1005.9
20260504193601 68 199 8.0 20.0 0.00 0.00 0.00 42 1006.0
20260504193102 68 280 4.0 17.0 0.00 0.00 0.00 43 1006.2
20260504192559 68 181 2.0 17.0 0.00 0.00 0.00 44 1006.3
20260504192059 67 161 5.0 11.0 0.00 0.00 0.00 44 1006.1
20260504191559 67 218 4.0 11.0 0.00 0.00 0.00 43 1006.1
20260504191100 68 181 2.0 16.0 0.00 0.00 0.00 42 1006.3
20260504190600 67 154 6.0 16.0 0.00 0.00 0.00 42 1006.2
20260504185558 67 143 3.0 17.0 0.00 0.00 0.00 45 1006.4
20260504185100 67 127 6.0 20.0 0.00 0.00 0.00 43 1006.4
20260504184606 67 156 8.0 20.0 0.00 0.00 0.00 43 1006.4
20260504184059 67 252 4.0 15.0 0.00 0.00 0.00 42 1006.1
20260504183559 67 174 4.0 12.0 0.00 0.00 0.00 43 1006.3
20260504183109 68 192 3.0 12.0 0.00 0.00 0.00 47 1006.4
20260504182559 68 15 6.0 15.0 0.00 0.00 0.00 40 1006.5
20260504182059 68 0 3.0 15.0 0.00 0.00 0.00 53 1006.4
20260504181602 67 139 7.0 15.0 0.00 0.00 0.00 45 1006.2
20260504181059 67 179 3.0 14.0 0.00 0.00 0.00 44 1006.1
20260504180600 67 188 3.0 13.0 0.00 0.00 0.00 46 1006.2
20260504175602 67 173 3.0 8.0 0.00 0.00 0.00 41 1006.2
20260504175059 66 0 1.0 14.0 0.00 0.00 0.00 46 1006.4
20260504174559 66 0 6.0 14.0 0.00 0.00 0.00 44 1006.4
20260504174059 67 266 4.0 14.0 0.00 0.00 0.00 45 1006.8
20260504173559 66 172 2.0 14.0 0.00 0.00 0.00 48 1006.6
20260504173102 66 183 7.0 14.0 0.00 0.00 0.00 44 1006.6
20260504172602 65 313 2.0 13.0 0.00 0.00 0.00 45 1006.8
20260504172059 65 183 5.0 15.0 0.00 0.00 0.00 45 1007.1
20260504171602 65 249 5.0 19.0 0.00 0.00 0.00 45 1006.9
20260504171101 65 37 5.0 19.0 0.00 0.00 0.00 47 1007.1
20260504170602 65 155 7.0 19.0 0.00 0.00 0.00 45 1006.9
20260504160133 61 171 3.0 18.0 0.00 0.00 0.00 50 1007.6
20260504151055 58 186 4.0 12.0 0.00 0.00 0.00 51 1008.1
20260504150602 58 171 5.0 12.0 0.00 0.00 0.00 49 1008.2
20260504150105 58 186 5.0 12.0 0.00 0.00 0.00 49 1008.1
20260504141100 58 196 4.0 11.0 0.00 0.00 0.00 49 1008.2
20260504140559 57 188 5.0 11.0 0.00 0.00 0.00 49 1008.1
20260504140110 56 165 6.0 12.0 0.00 0.00 0.00 52 1008.2
20260504130603 55 271 4.0 14.0 0.00 0.00 0.00 52 1008.3
20260504130103 55 130 2.0 13.0 0.00 0.00 0.00 51 1008.4
20260504110559 48 0 0.0 4.0 0.00 0.00 0.00 79 1008.7
20260504110104 47 134 0.0 4.0 0.00 0.00 0.00 80 1008.6
20260504100602 45 295 0.0 3.0 0.00 0.00 0.00 81 1008.6
20260504081559 46 248 1.0 5.0 0.00 0.00 0.00 79 1009.2
20260504081058 46 207 1.0 8.0 0.00 0.00 0.00 79 1009.1
20260504080557 46 173 1.0 8.0 0.00 0.00 0.00 79 1009.1
20260504070106 46 176 2.0 7.0 0.00 0.00 0.00 78 1009.1
20260504050600 46 191 3.0 8.0 0.00 0.00 0.00 70 1009.7
20260504045559 46 153 3.0 6.0 0.00 0.00 0.00 67 1009.5
20260504045058 47 192 2.0 13.0 0.00 0.00 0.00 68 1009.7
20260504044605 47 181 2.0 13.0 0.00 0.00 0.00 67 1009.7
20260504044059 46 243 5.0 13.0 0.00 0.00 0.00 69 1009.8
20260504043559 45 168 2.0 10.0 0.00 0.00 0.00 69 1009.8
20260504043059 45 280 4.0 10.0 0.00 0.00 0.00 70 1009.9
20260504042559 43 183 1.0 6.0 0.00 0.00 0.00 73 1009.8
20260504042058 43 165 1.0 6.0 0.00 0.00 0.00 72 1009.8
20260504041600 42 174 2.0 4.0 0.00 0.00 0.00 72 1009.8
20260504041058 42 197 1.0 4.0 0.00 0.00 0.00 76 1009.8
20260504040602 41 0 0.0 3.0 0.00 0.00 0.00 78 1009.8
20260504040058 40 0 0.0 8.0 0.00 0.00 0.00 81 1009.8
20260504035559 39 198 0.0 8.0 0.00 0.00 0.00 81 1009.7
20260504035059 39 172 2.0 8.0 0.00 0.00 0.00 81 1009.8
20260504034614 38 198 0.0 4.0 0.00 0.00 0.00 81 1009.7
20260504034059 38 241 2.0 4.0 0.00 0.00 0.00 81 1009.7
20260504033559 38 277 0.0 3.0 0.00 0.00 0.00 81 1009.7
20260504033100 38 0 0.0 4.0 0.00 0.00 0.00 81 1009.7
20260504032559 38 0 1.0 4.0 0.00 0.00 0.00 81 1009.7
20260504032059 37 230 0.0 2.0 0.00 0.00 0.00 81 1009.7
20260504031559 37 0 0.0 2.0 0.00 0.00 0.00 80 1009.8
20260504031059 37 0 0.0 2.0 0.00 0.00 0.00 81 1009.7
20260504030600 37 0 0.0 2.0 0.00 0.00 0.00 81 1009.6
20260504030100 37 0 0.0 3.0 0.00 0.00 0.00 82 1009.6
20260504025558 36 262 0.0 3.0 0.00 0.00 0.00 82 1009.7
20260504025059 35 297 0.0 2.0 0.00 0.00 0.00 84 1009.7
20260504024559 35 304 0.0 2.0 0.00 0.00 0.00 84 1009.6
20260504024059 35 0 0.0 2.0 0.00 0.00 0.00 83 1009.6
20260504023559 35 0 0.0 2.0 0.00 0.00 0.00 83 1009.6
20260504023100 35 157 0.0 2.0 0.00 0.00 0.00 82 1009.6
20260504022559 35 0 0.0 3.0 0.00 0.00 0.00 83 1009.7
20260504022058 35 0 0.0 3.0 0.00 0.00 0.00 83 1009.8
20260504021601 35 0 0.0 2.0 0.00 0.00 0.00 83 1009.9
20260504021057 35 165 0.0 2.0 0.00 0.00 0.00 83 1009.9
20260504020602 35 0 0.0 2.0 0.00 0.00 0.00 82 1009.9
20260504020059 36 0 0.0 2.0 0.00 0.00 0.00 81 1009.9
20260504015559 36 202 0.0 3.0 0.00 0.00 0.00 81 1009.9
20260504015101 36 153 0.0 3.0 0.00 0.00 0.00 81 1009.9
20260504014618 36 0 0.0 3.0 0.00 0.00 0.00 80 1010.0
20260504014100 36 169 0.0 3.0 0.00 0.00 0.00 79 1010.0
20260504013559 36 0 0.0 3.0 0.00 0.00 0.00 78 1010.0
20260504013104 37 0 0.0 3.0 0.00 0.00 0.00 78 1009.8
20260504012557 37 0 1.0 3.0 0.00 0.00 0.00 78 1009.7
20260504012059 37 0 0.0 3.0 0.00 0.00 0.00 78 1009.7
20260504011603 37 0 0.0 3.0 0.00 0.00 0.00 78 1009.6
20260504011102 37 176 0.0 3.0 0.00 0.00 0.00 78 1009.5
20260504010559 37 152 0.0 3.0 0.00 0.00 0.00 78 1009.5
20260504010100 38 0 0.0 2.0 0.00 0.00 0.00 77 1009.4
20260504005558 38 0 0.0 1.0 0.00 0.00 0.00 75 1009.2
20260504005059 38 0 0.0 1.0 0.00 0.00 0.00 77 1009.3
20260504004559 39 0 0.0 2.0 0.00 0.00 0.00 76 1009.1
20260504004057 39 181 0.0 2.0 0.00 0.00 0.00 76 1009.0
20260504003603 40 292 1.0 2.0 0.00 0.00 0.00 74 1009.1
20260504003101 40 286 0.0 2.0 0.00 0.00 0.00 75 1009.0
20260504002558 40 0 0.0 2.0 0.00 0.00 0.00 73 1008.9
20260504002059 41 283 1.0 3.0 0.00 0.00 0.00 72 1008.9